TimeCDT,TemperatureF,Dew PointF,Humidity,Sea Level PressureIn,VisibilityMPH,Wind Direction,Wind SpeedMPH,Gust SpeedMPH,PrecipitationIn,Events,Conditions,WindDirDegrees,DateUTC
12:35 AM,56.5,53.8,91,29.90,10.0,South,5.8,-,N/A,,Clear,190,2013-10-01 05:35:00
12:55 AM,55.9,53.6,92,29.90,7.0,South,5.8,-,N/A,,Clear,190,2013-10-01 05:55:00
1:15 AM,56.3,54.0,92,29.90,10.0,South,4.6,-,N/A,,Clear,190,2013-10-01 06:15:00
1:35 AM,55.2,53.1,92,29.91,7.0,South,3.5,-,N/A,,Clear,190,2013-10-01 06:35:00
1:55 AM,54.5,52.7,94,29.91,7.0,South,4.6,-,N/A,,Clear,180,2013-10-01 06:55:00
2:15 AM,56.3,54.5,94,29.92,7.0,SSW,5.8,-,N/A,,Clear,200,2013-10-01 07:15:00
2:35 AM,56.3,54.5,94,29.91,7.0,SSW,4.6,-,N/A,,Clear,200,2013-10-01 07:35:00
2:55 AM,55.9,54.5,95,29.91,7.0,South,5.8,-,N/A,,Clear,190,2013-10-01 07:55:00
3:15 AM,55.8,54.1,94,29.91,5.0,South,5.8,-,N/A,,Clear,190,2013-10-01 08:15:00
3:35 AM,56.5,55.2,96,29.91,5.0,South,5.8,-,N/A,,Scattered Clouds,190,2013-10-01 08:35:00
3:55 AM,56.1,54.5,94,29.91,5.0,South,4.6,-,N/A,,Scattered Clouds,180,2013-10-01 08:55:00
4:15 AM,54.0,52.5,95,29.91,4.0,South,3.5,-,N/A,,Scattered Clouds,170,2013-10-01 09:15:00
4:35 AM,53.8,52.5,95,29.92,3.0,South,4.6,-,N/A,,Scattered Clouds,170,2013-10-01 09:35:00
4:55 AM,55.4,54.5,97,29.92,4.0,South,3.5,-,N/A,,Clear,170,2013-10-01 09:55:00
5:15 AM,56.1,54.9,96,29.92,3.0,South,4.6,-,N/A,,Clear,180,2013-10-01 10:15:00
5:35 AM,55.8,54.7,96,29.92,3.0,South,5.8,-,N/A,,Clear,180,2013-10-01 10:35:00
5:55 AM,55.4,54.5,97,29.92,3.0,South,5.8,-,N/A,,Clear,190,2013-10-01 10:55:00
6:15 AM,59.0,58.1,97,29.93,4.0,South,9.2,-,N/A,,Mostly Cloudy,190,2013-10-01 11:15:00
6:35 AM,59.4,58.3,96,29.93,4.0,South,11.5,16.1,N/A,,Overcast,190,2013-10-01 11:35:00
6:55 AM,59.7,58.5,96,29.93,3.0,SSW,9.2,-,N/A,,Overcast,200,2013-10-01 11:55:00
7:15 AM,59.9,59.0,97,29.94,1.0,South,9.2,-,N/A,,Overcast,190,2013-10-01 12:15:00
7:35 AM,60.3,59.2,96,29.94,1.2,SSW,9.2,-,N/A,,Overcast,200,2013-10-01 12:35:00
7:55 AM,61.0,59.9,96,29.94,1.0,SSW,10.4,-,N/A,,Overcast,200,2013-10-01 12:55:00
8:15 AM,61.7,60.6,96,29.95,1.2,SSW,10.4,-,N/A,,Overcast,210,2013-10-01 13:15:00
8:35 AM,62.2,61.2,96,29.94,2.5,SSW,10.4,18.4,N/A,,Overcast,200,2013-10-01 13:35:00
8:55 AM,63.0,61.9,96,29.94,4.0,SSW,12.7,17.3,N/A,,Overcast,200,2013-10-01 13:55:00
9:15 AM,63.5,62.4,96,29.95,4.0,SSW,9.2,16.1,N/A,,Overcast,210,2013-10-01 14:15:00
9:35 AM,64.4,62.6,94,29.96,4.0,SW,9.2,-,N/A,,Overcast,220,2013-10-01 14:35:00
9:55 AM,64.9,62.6,92,29.96,5.0,SW,12.7,-,N/A,,Overcast,220,2013-10-01 14:55:00
10:15 AM,66.0,62.8,89,29.96,7.0,SSW,12.7,-,N/A,,Overcast,210,2013-10-01 15:15:00
10:35 AM,67.5,62.4,84,29.95,10.0,SSW,11.5,18.4,N/A,,Overcast,210,2013-10-01 15:35:00
10:55 AM,68.9,62.1,79,29.95,10.0,SSW,18.4,23.0,N/A,,Mostly Cloudy,210,2013-10-01 15:55:00
11:15 AM,71.1,61.5,72,29.94,10.0,SSW,16.1,23.0,N/A,,Mostly Cloudy,200,2013-10-01 16:15:00
11:35 AM,71.8,61.2,69,29.94,10.0,SSW,15.0,20.7,N/A,,Mostly Cloudy,210,2013-10-01 16:35:00
11:55 AM,73.6,61.3,65,29.94,10.0,SSW,13.8,-,N/A,,Scattered Clouds,210,2013-10-01 16:55:00
12:15 PM,74.8,61.2,62,29.93,10.0,SSW,12.7,19.6,N/A,,Clear,210,2013-10-01 17:15:00
12:35 PM,75.7,60.8,60,29.93,10.0,SW,13.8,18.4,N/A,,Clear,220,2013-10-01 17:35:00
12:55 PM,76.6,60.8,58,29.92,10.0,SW,13.8,19.6,N/A,,Clear,220,2013-10-01 17:55:00
1:15 PM,77.7,60.6,55,29.92,10.0,SSW,16.1,21.9,N/A,,Clear,210,2013-10-01 18:15:00
1:35 PM,79.3,59.9,51,29.91,10.0,SSW,13.8,18.4,N/A,,Clear,200,2013-10-01 18:35:00
1:55 PM,79.9,59.2,49,29.90,10.0,SW,15.0,19.6,N/A,,Clear,220,2013-10-01 18:55:00
2:15 PM,80.6,58.5,47,29.90,10.0,SSW,16.1,21.9,N/A,,Clear,200,2013-10-01 19:15:00
2:35 PM,81.1,58.3,46,29.89,10.0,SSW,11.5,20.7,N/A,,Clear,210,2013-10-01 19:35:00
2:55 PM,81.5,58.3,45,29.89,10.0,SW,12.7,21.9,N/A,,Clear,220,2013-10-01 19:55:00
3:15 PM,81.7,58.8,46,29.89,10.0,SSW,17.3,23.0,N/A,,Clear,200,2013-10-01 20:15:00
3:35 PM,81.7,58.8,46,29.89,10.0,SW,17.3,23.0,N/A,,Clear,220,2013-10-01 20:35:00
3:55 PM,81.5,58.8,46,29.89,10.0,SSW,13.8,20.7,N/A,,Clear,210,2013-10-01 20:55:00
4:15 PM,81.1,59.4,47,29.89,10.0,SW,12.7,21.9,N/A,,Clear,220,2013-10-01 21:15:00
4:35 PM,81.1,59.9,48,29.90,10.0,SW,11.5,-,N/A,,Scattered Clouds,230,2013-10-01 21:35:00
4:55 PM,80.2,60.1,50,29.90,10.0,SW,13.8,19.6,N/A,,Scattered Clouds,230,2013-10-01 21:55:00
5:15 PM,79.9,60.3,51,29.91,10.0,SW,11.5,17.3,N/A,,Scattered Clouds,220,2013-10-01 22:15:00
5:35 PM,79.2,60.1,52,29.91,10.0,SW,11.5,-,N/A,,Scattered Clouds,220,2013-10-01 22:35:00
5:55 PM,77.5,60.4,55,29.91,10.0,SSW,8.1,-,N/A,,Scattered Clouds,210,2013-10-01 22:55:00
6:15 PM,76.5,60.8,58,29.91,10.0,SSW,8.1,-,N/A,,Scattered Clouds,210,2013-10-01 23:15:00
6:35 PM,74.3,60.8,63,29.92,10.0,SSW,4.6,-,N/A,,Clear,210,2013-10-01 23:35:00
6:55 PM,71.4,61.0,70,29.92,10.0,West,3.5,-,N/A,,Clear,260,2013-10-01 23:55:00
7:15 PM,68.2,60.8,77,29.93,10.0,SSW,6.9,-,N/A,,Clear,210,2013-10-02 00:15:00
7:35 PM,69.4,60.8,74,29.93,10.0,SSW,6.9,-,N/A,,Clear,200,2013-10-02 00:35:00
7:55 PM,68.0,60.1,76,29.94,10.0,SSW,5.8,-,N/A,,Clear,200,2013-10-02 00:55:00
8:15 PM,66.2,60.1,81,29.94,10.0,South,6.9,-,N/A,,Clear,190,2013-10-02 01:15:00
8:35 PM,65.3,59.9,83,29.94,10.0,South,5.8,-,N/A,,Clear,180,2013-10-02 01:35:00
8:55 PM,64.8,59.9,84,29.95,10.0,South,5.8,-,N/A,,Clear,190,2013-10-02 01:55:00
9:15 PM,65.5,60.8,85,29.95,10.0,SSW,5.8,-,N/A,,Scattered Clouds,200,2013-10-02 02:15:00
9:35 PM,66.0,61.2,84,29.96,10.0,SSW,5.8,-,N/A,,Mostly Cloudy,210,2013-10-02 02:35:00
9:55 PM,65.5,61.2,86,29.96,10.0,SW,3.5,-,N/A,,Scattered Clouds,220,2013-10-02 02:55:00
10:15 PM,64.4,60.6,88,29.97,10.0,WNW,4.6,-,N/A,,Scattered Clouds,300,2013-10-02 03:15:00
10:35 PM,63.9,61.0,90,29.97,10.0,Calm,Calm,-,N/A,,Mostly Cloudy,0,2013-10-02 03:35:00
10:55 PM,63.9,60.6,89,29.98,10.0,Calm,Calm,-,N/A,,Overcast,0,2013-10-02 03:55:00
11:15 PM,61.7,59.2,91,29.99,10.0,Calm,Calm,-,N/A,,Scattered Clouds,0,2013-10-02 04:15:00
11:35 PM,61.0,59.0,93,29.99,7.0,SSE,5.8,-,N/A,,Clear,150,2013-10-02 04:35:00
11:55 PM,60.6,58.5,93,29.99,7.0,South,4.6,-,N/A,,Clear,180,2013-10-02 04:55:00